TimeCDT,TemperatureF,Dew PointF,Humidity,Sea Level PressureIn,VisibilityMPH,Wind Direction,Wind SpeedMPH,Gust SpeedMPH,PrecipitationIn,Events,Conditions,WindDirDegrees,DateUTC
12:58 AM,78.3,75.2,90,30.07,10.0,East,5.8,-,N/A,,Partly Cloudy,80,2013-08-21 05:58:00
1:58 AM,77.4,74.8,92,30.07,10.0,East,3.5,-,N/A,,Partly Cloudy,80,2013-08-21 06:58:00
2:58 AM,76.8,74.8,94,30.06,10.0,Calm,Calm,-,N/A,,Scattered Clouds,0,2013-08-21 07:58:00
3:58 AM,76.6,74.8,94,30.06,10.0,ENE,4.6,-,N/A,,Scattered Clouds,60,2013-08-21 08:58:00
4:03 AM,77.0,75.2,94,30.05,10.0,ENE,4.6,-,N/A,,Mostly Cloudy,60,2013-08-21 09:03:00
4:13 AM,77.0,75.2,94,30.05,10.0,ENE,5.8,-,N/A,,Mostly Cloudy,60,2013-08-21 09:13:00
4:23 AM,77.0,75.2,94,30.05,10.0,NE,4.6,-,N/A,,Scattered Clouds,50,2013-08-21 09:23:00
4:58 AM,76.5,75.2,96,30.07,10.0,ENE,5.8,-,N/A,,Partly Cloudy,60,2013-08-21 09:58:00
5:58 AM,76.1,75.0,96,30.08,10.0,ENE,5.8,-,N/A,,Clear,60,2013-08-21 10:58:00
6:58 AM,76.5,75.0,95,30.10,10.0,East,5.8,-,N/A,,Partly Cloudy,80,2013-08-21 11:58:00
7:55 AM,78.1,75.0,90,30.12,10.0,East,5.8,-,N/A,,Partly Cloudy,80,2013-08-21 12:55:00
8:58 AM,81.7,76.1,83,30.14,10.0,East,8.1,-,N/A,Thunderstorm,Scattered Clouds,100,2013-08-21 13:58:00
9:16 AM,80.6,75.2,84,30.15,10.0,South,18.4,21.9,N/A,Thunderstorm,Mostly Cloudy,190,2013-08-21 14:16:00
9:17 AM,80.6,75.2,84,30.15,10.0,SSW,17.3,21.9,N/A,Thunderstorm,Thunderstorm,200,2013-08-21 14:17:00
9:25 AM,78.8,71.6,78,30.15,5.0,South,12.7,23.0,N/A,Rain-Thunderstorm,Light Thunderstorms and Rain,170,2013-08-21 14:25:00
9:30 AM,77.0,71.6,83,30.14,3.0,South,12.7,23.0,N/A,Rain-Thunderstorm,Light Thunderstorms and Rain,190,2013-08-21 14:30:00
9:32 AM,75.2,71.6,89,30.14,3.0,South,11.5,23.0,N/A,Rain-Thunderstorm,Light Rain,180,2013-08-21 14:32:00
9:49 AM,73.4,69.8,88,30.14,10.0,South,8.1,-,N/A,Thunderstorm,Scattered Clouds,170,2013-08-21 14:49:00
9:58 AM,74.5,70.7,88,30.15,10.0,South,8.1,-,0.04,Thunderstorm,Scattered Clouds,180,2013-08-21 14:58:00
10:19 AM,75.2,69.8,83,30.15,10.0,SSW,5.8,-,N/A,Rain,Light Rain,200,2013-08-21 15:19:00
10:29 AM,75.2,71.6,89,30.14,10.0,SSW,4.6,-,N/A,,Scattered Clouds,210,2013-08-21 15:29:00
10:58 AM,77.2,70.7,80,30.15,10.0,South,2.3,-,0.00,,Mostly Cloudy,190,2013-08-21 15:58:00
11:01 AM,77.0,71.6,83,30.14,10.0,Calm,Calm,-,N/A,Rain,Light Rain,0,2013-08-21 16:01:00
11:16 AM,77.0,71.6,83,30.13,10.0,Calm,Calm,-,N/A,,Scattered Clouds,0,2013-08-21 16:16:00
11:58 AM,79.9,72.5,78,30.13,10.0,ENE,3.5,-,0.00,,Partly Cloudy,70,2013-08-21 16:58:00
12:58 PM,84.6,76.6,77,30.12,10.0,Variable,5.8,-,N/A,,Partly Cloudy,0,2013-08-21 17:58:00
1:13 PM,86.0,77.0,74,30.11,10.0,Variable,6.9,-,N/A,,Mostly Cloudy,0,2013-08-21 18:13:00
1:33 PM,86.0,75.2,70,30.10,10.0,Variable,6.9,-,N/A,,Scattered Clouds,0,2013-08-21 18:33:00
1:58 PM,87.1,74.1,65,30.10,10.0,SSE,6.9,-,N/A,,Scattered Clouds,160,2013-08-21 18:58:00
2:58 PM,87.6,73.8,63,30.09,10.0,SSE,9.2,-,N/A,,Clear,160,2013-08-21 19:58:00
3:58 PM,86.9,75.7,69,30.07,10.0,South,9.2,-,N/A,Thunderstorm,Clear,190,2013-08-21 20:58:00
4:58 PM,84.6,74.3,71,30.07,10.0,Variable,2.3,-,N/A,,Mostly Cloudy,0,2013-08-21 21:58:00
5:03 PM,84.2,75.2,74,30.06,10.0,Variable,2.3,-,N/A,,Scattered Clouds,0,2013-08-21 22:03:00
5:58 PM,81.9,74.1,77,30.08,10.0,NNE,4.6,-,N/A,,Partly Cloudy,20,2013-08-21 22:58:00
6:58 PM,80.2,74.5,83,30.06,10.0,ENE,2.3,-,N/A,,Partly Cloudy,70,2013-08-21 23:58:00
7:58 PM,78.3,74.3,88,30.05,10.0,NNE,2.3,-,N/A,,Clear,30,2013-08-22 00:58:00
8:58 PM,77.2,74.5,91,30.09,10.0,NE,4.6,-,N/A,,Clear,50,2013-08-22 01:58:00
9:58 PM,77.4,73.6,88,30.10,10.0,NE,3.5,-,N/A,,Clear,50,2013-08-22 02:58:00
10:58 PM,76.8,73.4,89,30.11,10.0,ENE,5.8,-,N/A,,Partly Cloudy,60,2013-08-22 03:58:00
11:58 PM,76.5,73.8,91,30.11,10.0,ENE,4.6,-,N/A,,Clear,70,2013-08-22 04:58:00